Location: Bennemühlen
(52.5740°N, 9.7135°E)
Time: 21:05:00
(UTC+00:00)

Vanguard 2 Rocket - Pass Details

Date: 21 February 2026
Orbit: 553 x 3286 km, 32.9° (Epoch: 8 March)

Event Time Altitude Azimuth Distance (km) Brightness Sun altitude
Rises 14:46:44 0° 262° (W) 7,009 12.4 14.9°
Reaches altitude 10° 14:52:48 10° 252° (WSW) 5,676 12.5 14.2°
Maximum altitude 15:04:50 27° 205° (SSW) 3,553 11.1 12.7°
Drops below altitude 10° 15:13:13 10° 153° (SSE) 3,853 10.3 11.7°
Sets 15:16:24 0° 141° (SE) 4,466 10.4 11.3°
